カタログに戻る

KUIPER-00232

運用中通信LEO
NORAD 67148·PAYLOAD·🇺🇸 United States

打ち上げ Dec 15, 2025 から Cape Canaveral Space Force Station

Loading…

次のパス (今後24時間)

TLE

最新Source: CelesTrak SupGP

元期: Sep 15, 2026, 05:30 UTC

1 67148C 25301R   26258.22962963 -.00001922  00000+0 -25151-3 0  2589
2 67148  51.8988 307.5002 0000451  78.2089 358.4720 14.79935736    12

AllMySatでKUIPER-00232をリアルタイム追跡

Download on the App Store